Weather History for Rickenbacker, OH

Change the Weather History Date:

Friday, April 18, 2014

  Actual Average Record
Temperature  
Mean Temperature 58 °F -  
Max Temperature 71 °F 64 °F 86 °F (2002)
Min Temperature 44 °F 44 °F 30 °F (1997)
Degree Days  
Heating Degree Days 8    
Growing Degree Days 8 (Base 50)    
Moisture  
Dew Point 33 °F    
Average Humidity 44    
Maximum Humidity 76    
Minimum Humidity 20    
Precipitation  
Precipitation 0.00 in - - ()
Sea Level Pressure  
Sea Level Pressure 30.25 in    
Wind  
Wind Speed 2 mph (West)    
Max Wind Speed 9 mph    
Max Gust Speed 17 mph    
Visibility 10 miles    
Events      
Averages and records for this station are not official NWS values.
T = Trace of Precipitation, MM = Missing Value Source: NWS Daily Summary

Daily Weather History Graph

Daily Weather History Graph

Search for Another Location

Airport:

Trip Planner

Search our weather history database for the weather conditions in past years. The results will help you decide how hot, cold, wet, or windy it might be!

Date:

Astronomy

Apr. 18, 2014 Rise Set
Actual Time 6:49 AM EDT 8:12 PM EDT
Civil Twilight 6:21 AM EDT 8:41 PM EDT
Nautical Twilight 5:47 AM EDT 9:15 PM EDT
Astronomical Twilight 5:12 AM EDT 9:50 PM EDT
Moon 11:56 PM EDT (4/18) 9:11 AM EDT (4/18)
Length of Visible Light 14h 19m
Length of Day
13h 23m
Waning Gibbous, 87% of the Moon is Illuminated
Apr 18
Waning Gibbous
Apr 22
Last Quarter
Apr 29
New
May 6
First Quarter
May 14
Full

Hourly Weather History & Observations

Time (EDT) Temp. Windchill Dew Point Humidity Pressure Visibility Wind Dir Wind Speed Gust Speed Precip Events Conditions
12:15 AM 50.4 °F - 33.8 °F 53% 30.28 in 10.0 mi Calm Calm - N/A   Clear
12:35 AM 48.2 °F - 36.1 °F 63% 30.27 in 10.0 mi Calm Calm - N/A   Clear
12:55 AM 46.8 °F - 36.7 °F 68% 30.27 in 10.0 mi East 3.5 mph - N/A   Clear
1:15 AM 45.5 °F 44.2 °F 37.0 °F 72% 30.27 in 10.0 mi East 3.5 mph - N/A   Clear
1:35 AM 45.9 °F - 36.0 °F 68% 30.26 in 10.0 mi Calm Calm - N/A   Clear
1:55 AM 45.5 °F - 35.6 °F 68% 30.26 in 10.0 mi Calm Calm - N/A   Clear
2:15 AM 44.2 °F - 35.6 °F 72% 30.26 in 10.0 mi Calm Calm - N/A   Clear
2:35 AM 45.9 °F - 34.5 °F 65% 30.26 in 10.0 mi Calm Calm - N/A   Clear
2:55 AM 46.9 °F - 34.0 °F 61% 30.26 in 10.0 mi Calm Calm - N/A   Clear
3:15 AM 46.4 °F - 34.0 °F 62% 30.26 in 10.0 mi Calm Calm - N/A   Clear
3:35 AM 45.5 °F - 33.4 °F 63% 30.25 in 10.0 mi Calm Calm - N/A   Clear
3:55 AM 45.3 °F - 32.7 °F 61% 30.25 in 10.0 mi Calm Calm - N/A   Clear
4:15 AM 45.7 °F 44.4 °F 32.2 °F 59% 30.26 in 10.0 mi SSE 3.5 mph - N/A   Clear
4:35 AM 46.2 °F 45.0 °F 31.5 °F 56% 30.26 in 10.0 mi SSE 3.5 mph - N/A   Clear
4:55 AM 46.6 °F - 30.4 °F 53% 30.26 in 10.0 mi South 4.6 mph - N/A   Clear
5:15 AM 45.5 °F 44.2 °F 30.9 °F 57% 30.27 in 10.0 mi West 3.5 mph - N/A   Clear
5:35 AM 44.1 °F - 33.6 °F 67% 30.27 in 10.0 mi Calm Calm - N/A   Clear
5:55 AM 44.1 °F - 36.9 °F 76% 30.27 in 10.0 mi Calm Calm - N/A   Clear
6:15 AM 44.6 °F - 35.6 °F 71% 30.27 in 10.0 mi Calm Calm - N/A   Clear
6:35 AM 44.4 °F 42.9 °F 35.6 °F 71% 30.27 in 10.0 mi NW 3.5 mph - N/A   Clear
6:55 AM 44.8 °F - 35.1 °F 69% 30.28 in 10.0 mi Calm Calm - N/A   Clear
7:15 AM 44.8 °F - 34.7 °F 68% 30.28 in 10.0 mi Calm Calm - N/A   Clear
7:35 AM 44.6 °F - 34.9 °F 69% 30.28 in 10.0 mi Calm Calm - N/A   Clear
7:55 AM 44.4 °F - 35.2 °F 70% 30.28 in 10.0 mi Calm Calm - N/A   Clear
8:15 AM 45.9 °F - 36.3 °F 69% 30.29 in 10.0 mi Calm Calm - N/A   Clear
8:35 AM 47.3 °F - 36.5 °F 66% 30.30 in 10.0 mi Calm Calm - N/A   Clear
8:55 AM 49.1 °F - 36.0 °F 61% 30.29 in 10.0 mi Calm Calm - N/A   Clear
9:15 AM 50.4 °F - 35.1 °F 56% 30.29 in 10.0 mi Calm Calm - N/A   Clear
9:35 AM 51.3 °F - 34.7 °F 53% 30.30 in 10.0 mi Calm Calm - N/A   Clear
9:55 AM 52.9 °F - 33.3 °F 47% 30.30 in 10.0 mi South 4.6 mph - N/A   Clear
10:15 AM 54.3 °F - 31.8 °F 42% 30.30 in 10.0 mi SSW 4.6 mph - N/A   Clear
10:35 AM 55.8 °F - 30.9 °F 39% 30.30 in 10.0 mi SSW 3.5 mph - N/A   Clear
10:55 AM 57.6 °F - 30.7 °F 36% 30.29 in 10.0 mi SSW 4.6 mph - N/A   Clear
11:15 AM 59.5 °F - 31.8 °F 35% 30.29 in 10.0 mi West 4.6 mph - N/A   Clear
11:35 AM 60.8 °F - 32.0 °F 34% 30.29 in 10.0 mi Calm Calm - N/A   Clear
12:15 PM 63.7 °F - 32.2 °F 31% 30.28 in 10.0 mi Calm Calm - N/A   Clear
12:35 PM 65.1 °F - 30.9 °F 28% 30.28 in 10.0 mi Calm Calm - N/A   Clear
12:55 PM 66.4 °F - 30.0 °F 26% 30.27 in 10.0 mi Calm Calm - N/A   Clear
1:15 PM 67.3 °F - 28.2 °F 23% 30.27 in 10.0 mi West 3.5 mph - N/A   Clear
1:35 PM 68.5 °F - 28.2 °F 22% 30.27 in 10.0 mi SW 5.8 mph - N/A   Clear
1:55 PM 69.8 °F - 29.3 °F 22% 30.26 in 10.0 mi SW 5.8 mph 17.3 mph N/A   Clear
2:15 PM 70.0 °F - 30.0 °F 23% 30.26 in 10.0 mi Calm Calm - N/A   Scattered Clouds
2:35 PM 70.5 °F - 30.0 °F 22% 30.26 in 10.0 mi NW 4.6 mph - N/A   Scattered Clouds
2:55 PM 70.0 °F - 28.4 °F 21% 30.25 in 10.0 mi NW 3.5 mph - N/A   Scattered Clouds
3:15 PM 70.3 °F - 27.3 °F 20% 30.25 in 10.0 mi SW 8.1 mph 16.1 mph N/A   Scattered Clouds
3:35 PM 71.6 °F - 27.7 °F 20% 30.24 in 10.0 mi SW 8.1 mph - N/A   Scattered Clouds
3:55 PM 70.9 °F - 27.7 °F 20% 30.23 in 10.0 mi NW 3.5 mph - N/A   Scattered Clouds
4:15 PM 70.3 °F - 27.9 °F 21% 30.23 in 10.0 mi SW 9.2 mph - N/A   Mostly Cloudy
4:35 PM 70.9 °F - 27.7 °F 20% 30.23 in 10.0 mi West 9.2 mph - N/A   Scattered Clouds
4:55 PM 70.0 °F - 27.3 °F 20% 30.22 in 10.0 mi NNW 8.1 mph - N/A   Scattered Clouds
5:15 PM 70.3 °F - 26.8 °F 20% 30.22 in 10.0 mi WSW 5.8 mph - N/A   Scattered Clouds
5:35 PM 69.4 °F - 26.8 °F 20% 30.21 in 10.0 mi NW 8.1 mph - N/A   Mostly Cloudy
5:55 PM 68.9 °F - 27.5 °F 21% 30.21 in 10.0 mi WNW 5.8 mph - N/A   Overcast
6:15 PM 68.9 °F - 29.3 °F 23% 30.21 in 10.0 mi WNW 8.1 mph - N/A   Overcast
6:35 PM 68.5 °F - 29.7 °F 23% 30.21 in 10.0 mi WNW 4.6 mph - N/A   Mostly Cloudy
6:55 PM 68.0 °F - 31.1 °F 25% 30.21 in 10.0 mi NW 4.6 mph - N/A   Scattered Clouds
7:15 PM 67.6 °F - 31.8 °F 26% 30.20 in 10.0 mi WNW 4.6 mph - N/A   Scattered Clouds
7:35 PM 67.3 °F - 32.0 °F 27% 30.20 in 10.0 mi NW 3.5 mph - N/A   Clear
7:55 PM 66.4 °F - 31.5 °F 27% 30.20 in 10.0 mi NW 4.6 mph - N/A   Clear
8:15 PM 65.5 °F - 31.6 °F 28% 30.20 in 10.0 mi Calm Calm - N/A   Clear
8:35 PM 65.3 °F - 30.7 °F 27% 30.21 in 10.0 mi Calm Calm - N/A   Clear
8:55 PM 64.4 °F - 30.9 °F 29% 30.21 in 10.0 mi Calm Calm - N/A   Clear
9:15 PM 63.7 °F - 31.6 °F 30% 30.21 in 10.0 mi Calm Calm - N/A   Clear
9:35 PM 61.2 °F - 34.0 °F 36% 30.22 in 10.0 mi Calm Calm - N/A   Clear
9:55 PM 60.4 °F - 33.6 °F 37% 30.23 in 10.0 mi Calm Calm - N/A   Mostly Cloudy
10:15 PM 57.7 °F - 37.8 °F 47% 30.23 in 10.0 mi Calm Calm - N/A   Mostly Cloudy
10:35 PM 55.6 °F - 39.6 °F 55% 30.23 in 10.0 mi Calm Calm - N/A   Scattered Clouds
10:55 PM 57.2 °F - 37.0 °F 47% 30.22 in 10.0 mi Calm Calm - N/A   Clear
11:15 PM 57.6 °F - 36.5 °F 45% 30.22 in 10.0 mi Calm Calm - N/A   Clear
11:35 PM 55.9 °F - 37.2 °F 49% 30.23 in 10.0 mi Calm Calm - N/A   Clear
11:55 PM 53.6 °F - 39.0 °F 58% 30.23 in 10.0 mi Calm Calm - N/A   Clear